GAOFEN-1 03

Last updated on Thu Nov 21 2024 00:02:27 GMT+0000 (Coordinated Universal Time)

1 43260U 18031B 24325.55538642 .00001836 00000+0 27017-3 0 9999 2 43260 97.8021 27.8993 0007194 87.2743 272.9290 14.76556635358043
UTC large
Height (km)
Speed (km/s)
/
Latitude / Longitude
Inclination (degrees)
Orbital Period (minutes)
Azimuth
Elevation
Range (km)
Doppler Factor

Next 0 passes for location: London (51.5072 / 0.1276)

Sorry there are no passes over London.